Regional Weather Roundup
Issued by NWS

Home | Current Version | Previous Version | Text Only | Print | Product List | Glossary On
Versions: 1 2 3 4 5 6 7 8 9 10 11 12 13 14 15 16 17 18 19 20 21 22 23 24 25 26 27 28 29 30 31 32 33 34 35 36 37 38 39 40 41 42 43 44 45 46 47 48 49 50
144
ASUS43 KBIS 120531
RWRND
NORTH DAKOTA REGIONAL WEATHER ROUNDUP
NATIONAL WEATHER SERVICE EASTERN NORTH DAKOTA/GRAND FORKS ND
1100 PM CST THU FEB 11 2016

  NOTE: "FAIR" INDICATES FEW OR NO CLOUDS BELOW 12,000 FEET WITH NO
  SIGNIFICANT WEATHER AND/OR OBSTRUCTIONS TO VISIBILITY.

NDZ001>003-009>011-017-120600-
...NORTHWEST NORTH DAKOTA...

CITY           SKY/WX    TMP DP  RH WIND       PRES   REMARKS
WILLISTON      CLOUDY    21  16  81 N7        30.33R WCI  12
MINOT          CLOUDY    19  10  68 N9        30.30R WCI   8
MINOT AFB      CLOUDY    15   9  79 N9        30.30R WCI   3
$$

NDZ018>021-031>035-040>046-120600-
...SOUTHWEST NORTH DAKOTA...

CITY           SKY/WX    TMP DP  RH WIND       PRES   REMARKS
BISMARCK       MOCLDY    19  12  74 N3        30.30R
DICKINSON      CLOUDY    21  17  84 N6        30.23R WCI  13
GARRISON         N/A     15  12  88 W7        30.28R WCI   5
HETTINGER      CLOUDY    23  20  88 NW3       30.24S FOG
$$

NDZ004>008-012>016-024-026-027-054-120600-
...NORTHEAST NORTH DAKOTA...

CITY           SKY/WX    TMP DP  RH WIND       PRES   REMARKS
GRAND FORKS    PTCLDY     7   1  76 NW7       30.31S WCI  -5
GRAND FORKS AF PTCLDY     8   2  78 N8        30.31S WCI  -5
DEVILS LAKE    CLOUDY     7   3  84 NW7       30.30R WCI  -5
$$

NDZ022-023-025-028>030-036>039-047>053-120600-
...SOUTHEAST NORTH DAKOTA...

CITY           SKY/WX    TMP DP  RH WIND       PRES   REMARKS
JAMESTOWN      CLOUDY     6   2  83 NW7       30.27R WCI  -6
FARGO          CLOUDY    13   7  77 N10       30.29S WCI   0
WAHPETON       MOCLDY    10   5  79 NW7       30.29F WCI   0
$$




USA.gov is the U.S. government's official web portal to all federal, state and local government web resources and services.